Погода в Перми

Погода в Перми : погода сейчас, прогноз погоды и архив. Всё, что Вы хотите узнать о погоде в Перми!

Хотите узнать прогноз погоды в Перми? Тогда Вам сюда: Погода в Перми

Поиск расширенной информации на нашем сайте:

Другие новости

Новости СМИ2

Главная страница сайта

Новости сайта

03.07.2017

Напоминаем, что на нашем специализированном сайте Метеоцентр.Азия вы можете получить высокодетализированные автоматические прогнозы погоды по пунктам России, СНГ и мира в авиационном формате (включающие направление и скорость ветра, видимость, явления погоды, количество и форму облачности, нижнюю и верхнюю границу облачности).

Рекомендуем: Свежая информация - передние амортизаторы Daewoo Lanos - актуальная информация!

Погода в Перми - сегодня

Время (UTC), дата Ветер
(°,м/с) 
Видим.   Явления Облачность Т
(°С)
Тd
(°С)
f(%) Тe
(°С)
Pmin
(гПа)
dP
(гПа)
Po
(мм)
O2
(г/м3)
Тmin Tmax R s Состояние
почвы
06 12.12.17 120 (ЮВ) 10 км    ясно 
-19.9 -22.6 79 -23  1034.4  0.3  758  331           
09 12.12.17 130 (ЮВ) 20000 м    10/10 600 м 
[Sc]
-16.6 -19.2 80 -19  1034.1  758  327           
12 12.12.17 110 (В) 10 км  слаб. снег  10/9 600 м средняя 
[Sc|As op]
-15.9 -18.1 83 -18  1034.3  0.3  758  326           
15 12.12.17 140 (ЮВ) 10 км  в посл. час снег  10/10 600 м 
[Sc]
-13.2 -15.2 85 -13  1034.4  0.3  759  323    -13.2  0.0     
18 12.12.17 150 (ЮВ) 10 км  {снег}  10/10 600 м 
[Sc]
-11.7 -13.7 85 -14  1034.7  0.4  759  321           
21 12.12.17 130 (ЮВ) 10 км  слаб. снег  10/8 600 м средняя 
[Sc|As op]
-10.8 -12.8 85 -14  1034.5  -0.2  759  320           
00 13.12.17 150 (ЮВ) 10 км  {снег}  10/10 600 м 
[Sc]
-9.4 -11.4 85 -12  1034.2  0.1  759  318           
03 13.12.17 160 (Ю) 10 км    10/8 600 м средняя 
[Sc|As trans]
-8.3 -9.9 88 -12  1033.4  -0.7  758  316  -13.2    0.0  15  равномерный
сухой снег
100% 
06 13.12.17 160 (Ю) 20000 м    9/9 600 м 
[Sc]
-5.9 -7.6 88 -8  1033  -0.2  758  313           
09 13.12.17 160 (Ю) 3{10}  20000 м    9/9 600 м 
[Sc]
-4.4 -6.6 85 -7  1032.2  -0.6  758  311           
12 13.12.17 160 (Ю) 20000 м    10/10 300 м 
[Sc]
-4.3 -6.6 84 -8  1031.1  -1.1  757  311           
15 13.12.17 160 (Ю) 5{10}  20000 м    10/10 300 м 
[Sc]
-4.4 -6.9 83 -8  1030  -1.1  756  310    -4.2       
18 13.12.17 170 (Ю) 6-10{11}  20000 м    10/10 600 м 
[Sc]
-4.5 -7.3 81 -9  1028.6  -1.4  755  310           
21 13.12.17 160 (Ю) 4{10}  20000 м    8/8 300 м 
[Sc]
-4.3 -7 81 -7  1027.3  -1.3  754  309           
00 14.12.17 160 (Ю) 5{11}  4000 м  слаб. снег  10/10 300 м 
[Ns]
-4 -6.4 83 -8  1026.4  -0.9  753  309           
03 14.12.17 170 (Ю) 4{10}  4000 м  слаб. снег  10/10 300 м 
[Frnb|Ns]
-3.9 -6.1 85 -7  1025.8  -0.5  753  308  -4.6    0.4  15  равномерный
сухой снег
100% 
06 14.12.17 180 (Ю) 4{12}  4000 м  снег  10/10 300 м 
[Ns]
-4.7 -6.8 85 -8  1027  -0.5  754  310  -4.7         
09 14.12.17 180 (Ю) 4000 м  снег  10/10 600 м 
[Ns]
-5.2 -7.3 85 -8  1027.9  0.8  754  311           
12 14.12.17 170 (Ю) 4{10}  2000 м  снег  10/10 600 м 
[Ns]
-5.6 -7.3 88 -9  1028.3  0.3  755  311           
15 14.12.17 160 (Ю) 2000 м  снег  10/10 600 м 
[Ns]
-5.5 -7.2 88 -9  1028.2  755  311    -3.7     
18 14.12.17 170 (Ю) 4000 м  слаб. снег  10/8 600 м средняя 
[Sc|As op]
-4.1 -6 87 -7  1028  0.1  755  309           
21 14.12.17 190 (Ю) 20000 м  {снег}  10/8 600 м средняя 
[Sc|As trans]
-1.3 -5.2 75 -5  1028.4  0.6  755  306           
00 15.12.17 170 (Ю) 4{10}  20000 м  {снег}  10/9 600 м средняя 
[Sc|As trans]
-1.9 -7 68 -5  1029.5  756  307           
03 15.12.17 180 (Ю) 20000 м    10/8 600 м средняя 
[Sc|As trans]
-2.7 -8.5 64 -6  1030.1  0.6  756  309  -5.4    20  равномерный
сухой снег
100% 
06 15.12.17 160 (Ю) 4{10}  20000 м    10/8 1000 м средняя 
[Sc|Ac lent]
-4.4 -9.2 69 -8  1030.8  0.5  757  311           
Время (UTC), дата Ветер
(°,м/с) 
Видим.   Явления Облачность Т
(°С)
Тd
(°С)
f(%) Тe
(°С)
Pmin
(гПа)
dP
(гПа)
Po
(мм)
O2
(г/м3)
Тmin Tmax R s Состояние
почвы

Для получения пояснительной информации подведите курсор к названию столбца.

ПОГОДА в Перми - архив

Всё, что Вы хотите узнать о погоде в Перми - удобно и подробно!

Выберите нужную дату (начиная с 1 января 2015* года) и нажмите кнопку "Найти".
Будут отображены архивные сводки погоды по пункту Пермь, начиная с указанной даты.


Отображать данные в формате CSV (для использования в таблицах Excel)


Внимание! Наш архив погоды предназначен исключительно для личного некоммерческого использования в познавательных целях. Если Вам необходимы официальные справки о состоянии погоды (для производственных, юридических, коммерческих и т.п. целей), обращайтесь в органы Росгидромета.

*Примечание: данная дата относится к архиву по метеостанциям СССР (Россия, СНГ, Балтия).
Архив по метеостанциям Зарубежной Европы и Азии (кроме Китая) хранится 10 дней, по другим регионам земного шара (Китай, Африка, Америка, Австралия, Океания) - 1 день.

Пермь - район местоположения метеостанции


Название, широта, долгота, высота метеостанции:
Пермь (город) 58°ш. 56.3°д. 171 м над ур. моря [Российская Федерация]

Дополнительная информация

В oтличие oт бoльшинства пoгoдных сайтoв мы публикуем пoдрoбную метеoинфoрмацию в детальнoм прoфессиoнальнoм фoрмате.

Характеристики температуры и влажнoсти вoздуха измеряются на высoте 2 м в тени вдали oт зданий и деревьев.
Скoрoсть ветра измеряется на высoте 10 м (на урoвне рoста челoвека скoрoсть ветра ниже в 1.5-2 раза). Если метеoстанция нахoдится в гoрoде или в лесу, тo скoрoсть ветра занижена на 2-4 м/с пo сравнению с oткрытым местoм. Скoрoсть ветра над акватoриями крупных рек и oзёр, а также на вершинах хoлмoв на 2-5 м/с выше, чем в oбычных услoвиях.
Атмoсфернoе давление в разных тoчках местнoсти мoжет значительнo oтличаться oт давления на метеoстанции, в зависимoсти oт услoвий рельефа (при пoдъёме на 10 м давление пoнижается примернo на 1 мм рт.ст.).